^^
Station Historical Data
Daily Summary for August 9, 2018 Units:  English    Metric   Both
« Previous Day
Next Day »
Daily Weekly Monthly Yearly Custom
  High: Low: Average:
Temperature: TemperatureF °F 48.9 °F 64.6 °F
Dew Point: DewpointF °F 42.1 °F 44 °F
Humidity: Humidity % 30 % 51 %
Wind Speed: WindSpeedMPH mph 0 mph 7.4 mph
Wind Gust: WindSpeedGustMPH mph - -
Wind:- - SE
Pressure: PressureIn in 30.03 in -
Precipitation: 0 in    
Historical Graphs
 
 
Tabular Data for August 9, 2018
Time Temperature Dew Point Pressure Wind Wind Speed Wind Gust Humidity Rainfall Rate (Hourly)
TemperatureF °F DewpointF °F PressureIn in Calm     Humidity % HourlyPrecipIn in
00:04 54.9 °F 46.8 °F 30.10 in SSW 8.9 mph 11 mph 74 % 0 in
00:09 54.7 °F 46.9 °F 30.10 in SSW 8.1 mph 13 mph 75 % 0 in
00:14 54.1 °F 47.1 °F 30.10 in SE 8.9 mph 10 mph 77 % 0 in
00:19 53.8 °F 46.8 °F 30.11 in South 8.9 mph 13 mph 77 % 0 in
00:24 53.6 °F 46.6 °F 30.11 in SSW 8.9 mph 12 mph 77 % 0 in
00:29 53.6 °F 46.6 °F 30.11 in South 4.9 mph 11 mph 77 % 0 in
00:34 53.6 °F 46.9 °F 30.11 in SE 8.9 mph 12 mph 78 % 0 in
00:39 52.9 °F 46.6 °F 30.11 in SSW 8.9 mph 15 mph 79 % 0 in
00:44 52.9 °F 46.6 °F 30.11 in ESE 8.9 mph 11 mph 79 % 0 in
00:49 52.5 °F 46.2 °F 30.11 in ENE 6 mph 11 mph 79 % 0 in
00:54 52.2 °F 46.2 °F 30.11 in SW 6.9 mph 12 mph 80 % 0 in
00:59 52 °F 46.4 °F 30.11 in SW 4.9 mph 8 mph 81 % 0 in
01:04 52 °F 46.4 °F 30.11 in East 4 mph 9 mph 81 % 0 in
01:09 52 °F 46.4 °F 30.12 in WSW 6.9 mph 12 mph 81 % 0 in
01:14 52 °F 46.4 °F 30.12 in SW 8.1 mph 10 mph 81 % 0 in
01:19 52.3 °F 46.4 °F 30.12 in SW 8.1 mph 8 mph 80 % 0 in
01:24 52.7 °F 46.4 °F 30.12 in SW 6 mph 8 mph 79 % 0 in
01:29 52.5 °F 46.2 °F 30.12 in SW 6 mph 8 mph 79 % 0 in
01:34 52.5 °F 46.2 °F 30.12 in SE 4 mph 10 mph 79 % 0 in
01:39 52.2 °F 46.2 °F 30.12 in WSW 6.9 mph 10 mph 80 % 0 in
01:44 52.2 °F 45.9 °F 30.12 in SW 6 mph 8 mph 79 % 0 in
01:49 52 °F 45.7 °F 30.12 in SSW 4.9 mph 9 mph 79 % 0 in
01:54 51.6 °F 45.7 °F 30.12 in SSW 4.9 mph 11 mph 80 % 0 in
01:59 52 °F 45.7 °F 30.12 in SW 6.9 mph 9 mph 79 % 0 in
02:04 52.2 °F 45.5 °F 30.13 in SSW 6 mph 8 mph 78 % 0 in
02:09 52 °F 45.3 °F 30.13 in SW 4 mph 7 mph 78 % 0 in
02:14 52 °F 45.3 °F 30.12 in SSE 6 mph 8 mph 78 % 0 in
02:19 52.2 °F 45.1 °F 30.12 in WSW 6 mph 10 mph 77 % 0 in
02:24 52.2 °F 45.1 °F 30.12 in WSW 4.9 mph 8 mph 77 % 0 in
02:29 52.2 °F 45.1 °F 30.12 in SW 8.1 mph 9 mph 77 % 0 in
02:34 51.6 °F 45 °F 30.12 in SW 8.1 mph 10 mph 78 % 0 in
02:39 51.6 °F 45 °F 30.12 in SSE 8.1 mph 11 mph 78 % 0 in
02:44 51.3 °F 45.3 °F 30.12 in SW 8.1 mph 11 mph 80 % 0 in
02:49 51.1 °F 45.1 °F 30.12 in SW 8.1 mph 10 mph 80 % 0 in
02:54 51.3 °F 45 °F 30.12 in SW 8.9 mph 10 mph 79 % 0 in
02:59 51.3 °F 45 °F 30.12 in SSE 6 mph 10 mph 79 % 0 in
03:04 50.7 °F 44.4 °F 30.11 in South 8.9 mph 11 mph 79 % 0 in
03:09 50.7 °F 44.4 °F 30.11 in NW 4.9 mph 10 mph 79 % 0 in
03:14 50.9 °F 44.6 °F 30.11 in SSW 6.9 mph 8 mph 79 % 0 in
03:19 50.5 °F 44.2 °F 30.11 in SE 10.1 mph 12 mph 79 % 0 in
03:24 50.2 °F 44.2 °F 30.12 in SW 8.9 mph 10 mph 80 % 0 in
03:29 50.5 °F 44.2 °F 30.12 in SW 6 mph 9 mph 79 % 0 in
03:34 51.1 °F 44.4 °F 30.12 in SW 6 mph 8 mph 78 % 0 in
03:39 51.1 °F 44.4 °F 30.11 in SW 6 mph 9 mph 78 % 0 in
03:44 50.9 °F 44.2 °F 30.11 in SW 6 mph 8 mph 78 % 0 in
03:49 50.5 °F 43.9 °F 30.11 in SSW 6.9 mph 10 mph 78 % 0 in
03:54 50.5 °F 44.2 °F 30.11 in SW 6 mph 12 mph 79 % 0 in
03:59 50.2 °F 43.9 °F 30.11 in SW 4.9 mph 10 mph 79 % 0 in
04:04 49.3 °F 43.7 °F 30.11 in WSW 6.9 mph 12 mph 81 % 0 in
04:09 49.8 °F 43.5 °F 30.11 in WSW 6.9 mph 7 mph 79 % 0 in
04:14 50.9 °F 43.9 °F 30.11 in WSW 4.9 mph 8 mph 77 % 0 in
04:19 50.7 °F 43.5 °F 30.11 in SW 8.1 mph 10 mph 76 % 0 in
04:24 51.1 °F 43.7 °F 30.11 in WSW 6 mph 9 mph 76 % 0 in
04:29 50.9 °F 43.3 °F 30.11 in SW 6 mph 8 mph 75 % 0 in
04:34 50.5 °F 43 °F 30.11 in SSW 6.9 mph 8 mph 75 % 0 in
04:39 51.1 °F 42.8 °F 30.11 in SSW 4 mph 7 mph 73 % 0 in
04:44 51.1 °F 43.2 °F 30.11 in WSW 4.9 mph 8 mph 74 % 0 in
04:49 50.5 °F 43 °F 30.11 in SW 8.1 mph 10 mph 75 % 0 in
04:54 50.7 °F 43.2 °F 30.11 in WSW 8.9 mph 9 mph 75 % 0 in
04:59 50.4 °F 43.2 °F 30.11 in SW 10.1 mph 10 mph 76 % 0 in
05:04 50 °F 42.8 °F 30.11 in SW 6.9 mph 10 mph 76 % 0 in
05:09 50.2 °F 43 °F 30.11 in SW 6.9 mph 9 mph 76 % 0 in
05:14 50 °F 42.4 °F 30.11 in SW 6.9 mph 11 mph 75 % 0 in
05:19 50 °F 42.8 °F 30.11 in South 6.9 mph 9 mph 76 % 0 in
05:24 49.8 °F 43 °F 30.11 in SW 4.9 mph 9 mph 77 % 0 in
05:29 49.6 °F 42.8 °F 30.11 in WSW 8.9 mph 11 mph 77 % 0 in
05:34 49.5 °F 42.6 °F 30.12 in SW 4.9 mph 9 mph 77 % 0 in
05:39 49.6 °F 42.4 °F 30.12 in SW 8.1 mph 11 mph 76 % 0 in
05:44 49.6 °F 42.8 °F 30.12 in SW 6 mph 10 mph 77 % 0 in
05:49 49.3 °F 42.4 °F 30.12 in SW 4.9 mph 9 mph 77 % 0 in
05:54 49.3 °F 42.4 °F 30.12 in SSE 2.9 mph 7 mph 77 % 0 in
05:59 48.9 °F 42.4 °F 30.12 in SSW 6.9 mph 9 mph 78 % 0 in
06:04 49.1 °F 42.3 °F 30.12 in South 6 mph 8 mph 77 % 0 in
06:09 49.3 °F 42.1 °F 30.12 in SW 6 mph 9 mph 76 % 0 in
06:14 49.3 °F 42.1 °F 30.12 in SW 6.9 mph 9 mph 76 % 0 in
06:19 49.3 °F 42.8 °F 30.13 in SSE 6.9 mph 9 mph 78 % 0 in
06:24 48.9 °F 42.6 °F 30.13 in SSW 8.1 mph 12 mph 79 % 0 in
06:29 48.9 °F 42.4 °F 30.13 in South 6 mph 10 mph 78 % 0 in
06:34 48.9 °F 42.4 °F 30.13 in SSE 8.1 mph 11 mph 78 % 0 in
06:39 49.3 °F 42.8 °F 30.13 in SW 8.1 mph 8 mph 78 % 0 in
06:44 49.5 °F 42.3 °F 30.13 in SSW 6 mph 9 mph 76 % 0 in
06:49 49.8 °F 42.6 °F 30.13 in SSW 4 mph 9 mph 76 % 0 in
06:54 50.2 °F 42.6 °F 30.14 in SSW 4.9 mph 8 mph 75 % 0 in
06:59 50.5 °F 42.6 °F 30.14 in ENE 6 mph 8 mph 74 % 0 in
07:04 50.7 °F 42.8 °F 30.13 in SSW 8.1 mph 13 mph 74 % 0 in
07:09 51.1 °F 42.8 °F 30.14 in SW 6.9 mph 10 mph 73 % 0 in
07:14 51.3 °F 43 °F 30.14 in SW 8.9 mph 13 mph 73 % 0 in
07:19 52 °F 42.8 °F 30.14 in WSW 6 mph 12 mph 71 % 0 in
07:24 52.3 °F 43.2 °F 30.14 in South 4.9 mph 7 mph 71 % 0 in
07:29 52.5 °F 43 °F 30.14 in SW 6.9 mph 8 mph 70 % 0 in
07:34 52.9 °F 43.3 °F 30.14 in WSW 4.9 mph 6 mph 70 % 0 in
07:39 54 °F 43.7 °F 30.14 in WSW 4 mph 4 mph 68 % 0 in
07:44 55 °F 44.2 °F 30.14 in WSW 0.9 mph 3 mph 67 % 0 in
07:49 56.1 °F 44.6 °F 30.14 in WSW 0.9 mph 2 mph 65 % 0 in
07:54 57.4 °F 45 °F 30.14 in Calm     63 % 0 in
07:59 58.5 °F 44.6 °F 30.14 in Calm   2 mph 60 % 0 in
08:04 59.2 °F 44.8 °F 30.14 in South 0.9 mph 4 mph 59 % 0 in
08:09 59.7 °F 45 °F 30.14 in SSE 0.9 mph 3 mph 58 % 0 in
08:14 60.6 °F 44.4 °F 30.14 in SW 2 mph 4 mph 55 % 0 in
08:19 61.3 °F 44.6 °F 30.14 in SE 2.9 mph 3 mph 54 % 0 in
08:24 62.2 °F 45 °F 30.14 in SE 2.9 mph 5 mph 53 % 0 in
08:29 62.8 °F 45 °F 30.14 in South 4 mph 6 mph 52 % 0 in
08:34 63.3 °F 45 °F 30.14 in South 4 mph 5 mph 51 % 0 in
08:39 64 °F 44.4 °F 30.14 in SSE 2.9 mph 4 mph 49 % 0 in
08:44 64.9 °F 44.8 °F 30.14 in South 4.9 mph 5 mph 48 % 0 in
08:49 65.7 °F 44.2 °F 30.14 in South 0.9 mph 5 mph 46 % 0 in
08:54 66.4 °F 44.4 °F 30.14 in South 2.9 mph 4 mph 45 % 0 in
08:59 67.3 °F 44.6 °F 30.13 in South 4.9 mph 5 mph 44 % 0 in
09:04 68 °F 45.3 °F 30.13 in South 2 mph 4 mph 44 % 0 in
09:09 68.5 °F 45.1 °F 30.13 in South 2 mph 3 mph 43 % 0 in
09:14 69.3 °F 45.9 °F 30.13 in Calm     43 % 0 in
09:19 69.4 °F 45.3 °F 30.12 in Calm   1 mph 42 % 0 in
09:24 70.3 °F 46.2 °F 30.12 in SSE 2 mph 2 mph 42 % 0 in
09:29 70.9 °F 46 °F 30.12 in NNW 0.9 mph 2 mph 41 % 0 in
09:34 71.4 °F 45.9 °F 30.12 in NE 2 mph 6 mph 40 % 0 in
09:39 72.1 °F 46.4 °F 30.11 in NE 2.9 mph 5 mph 40 % 0 in
09:44 72 °F 46.4 °F 30.11 in Calm   3 mph 40 % 0 in
09:49 72.7 °F 46.9 °F 30.11 in ENE 4.9 mph 5 mph 40 % 0 in
09:54 72.9 °F 46.4 °F 30.11 in ENE 6 mph 7 mph 39 % 0 in
09:59 72.9 °F 46.4 °F 30.11 in NE 4.9 mph 10 mph 39 % 0 in
10:04 73 °F 46.6 °F 30.11 in NE 8.1 mph 9 mph 39 % 0 in
10:09 73.6 °F 47.1 °F 30.11 in NE 6 mph 8 mph 39 % 0 in
10:14 73.8 °F 46.6 °F 30.11 in NNE 6.9 mph 10 mph 38 % 0 in
10:19 73.4 °F 46.9 °F 30.11 in NNE 8.9 mph 13 mph 39 % 0 in
10:24 73.6 °F 46.4 °F 30.11 in NE 11 mph 12 mph 38 % 0 in
10:29 73 °F 45.9 °F 30.11 in NE 8.1 mph 13 mph 38 % 0 in
10:34 73.9 °F 46 °F 30.11 in NE 8.9 mph 13 mph 37 % 0 in
10:39 74.1 °F 44.8 °F 30.11 in NE 8.9 mph 14 mph 35 % 0 in
10:44 73.6 °F 44.2 °F 30.11 in NE 10.1 mph 13 mph 35 % 0 in
10:49 73.9 °F 46 °F 30.11 in ENE 13 mph 17 mph 37 % 0 in
10:54 74.7 °F 45.9 °F 30.11 in NE 12.1 mph 15 mph 36 % 0 in
10:59 73.9 °F 46 °F 30.11 in NE 8.1 mph 14 mph 37 % 0 in
11:04 74.5 °F 47.8 °F 30.11 in NE 11 mph 12 mph 39 % 0 in
11:09 74.5 °F 47.1 °F 30.11 in SE 4.9 mph 17 mph 38 % 0 in
11:14 74.7 °F 48 °F 30.10 in ENE 11 mph 16 mph 39 % 0 in
11:19 74.7 °F 48 °F 30.10 in NE 12.1 mph 16 mph 39 % 0 in
11:24 73.8 °F 47.3 °F 30.10 in ENE 13 mph 20 mph 39 % 0 in
11:29 73.8 °F 45.9 °F 30.10 in ENE 19.9 mph 22 mph 37 % 0 in
11:34 72.7 °F 44.2 °F 30.10 in NE 13 mph 22 mph 36 % 0 in
11:39 72.7 °F 45 °F 30.10 in ENE 8.1 mph 18 mph 37 % 0 in
11:44 73.8 °F 46.6 °F 30.09 in ENE 13 mph 14 mph 38 % 0 in
11:49 73.9 °F 45.3 °F 30.10 in ENE 13 mph 18 mph 36 % 0 in
11:54 74.5 °F 45.9 °F 30.09 in ENE 15 mph 17 mph 36 % 0 in
11:59 73.9 °F 45.3 °F 30.09 in ENE 10.1 mph 18 mph 36 % 0 in
12:04 74.5 °F 43.5 °F 30.09 in South 13 mph 21 mph 33 % 0 in
12:09 74.5 °F 44.2 °F 30.09 in ENE 17.9 mph 18 mph 34 % 0 in
12:14 73.9 °F 44.6 °F 30.09 in ENE 19 mph 22 mph 35 % 0 in
12:19 74.1 °F 45.5 °F 30.09 in ENE 8.9 mph 14 mph 36 % 0 in
12:24 74.7 °F 45.1 °F 30.09 in ENE 10.1 mph 16 mph 35 % 0 in
12:29 74.5 °F 45.9 °F 30.09 in NE 17.9 mph 20 mph 36 % 0 in
12:34 74.7 °F 45.9 °F 30.09 in NE 15 mph 19 mph 36 % 0 in
12:39 74.8 °F 46 °F 30.09 in East 11 mph 13 mph 36 % 0 in
12:44 75.4 °F 45.1 °F 30.09 in NNE 4.9 mph 17 mph 34 % 0 in
12:49 75 °F 45.5 °F 30.08 in NNW 8.9 mph 22 mph 35 % 0 in
12:54 74.8 °F 46 °F 30.09 in ENE 10.1 mph 21 mph 36 % 0 in
12:59 75.6 °F 45.1 °F 30.08 in ENE 16.1 mph 16 mph 34 % 0 in
13:04 76.5 °F 44.4 °F 30.08 in NE 8.1 mph 11 mph 32 % 0 in
13:09 76.6 °F 44.6 °F 30.08 in NE 8.1 mph 10 mph 32 % 0 in
13:14 75.9 °F 43.9 °F 30.08 in NE 10.1 mph 15 mph 32 % 0 in
13:19 75.2 °F 44.1 °F 30.08 in NE 10.1 mph 17 mph 33 % 0 in
13:24 75.2 °F 45 °F 30.08 in ENE 2 mph 8 mph 34 % 0 in
13:28 75.4 °F 44.2 °F 30.07 in NE 2.9 mph 19 mph 33 % 0 in
13:34 75.4 °F 44.2 °F 30.07 in ENE 16.1 mph 23 mph 33 % 0 in
13:39 75.4 °F 45.1 °F 30.07 in NE 12.1 mph 18 mph 34 % 0 in
13:44 75.4 °F 44.2 °F 30.07 in East 19 mph 22 mph 33 % 0 in
13:49 75.4 °F 44.2 °F 30.06 in ENE 17.9 mph 22 mph 33 % 0 in
13:54 75.2 °F 44.1 °F 30.07 in East 8.9 mph 11 mph 33 % 0 in
13:59 75.6 °F 44.4 °F 30.06 in ENE 11 mph 14 mph 33 % 0 in
14:04 75.2 °F 45 °F 30.06 in ENE 15 mph 22 mph 34 % 0 in
14:09 76.1 °F 45 °F 30.06 in ENE 10.1 mph 12 mph 33 % 0 in
14:14 76.6 °F 44.6 °F 30.06 in East 16.1 mph 20 mph 32 % 0 in
14:19 76.1 °F 44.1 °F 30.06 in ENE 8.1 mph 14 mph 32 % 0 in
14:24 76.5 °F 44.4 °F 30.06 in ENE 11 mph 11 mph 32 % 0 in
14:29 75.4 °F 43.5 °F 30.06 in NE 6.9 mph 14 mph 32 % 0 in
14:34 75.9 °F 43.9 °F 30.05 in ENE 10.1 mph 22 mph 32 % 0 in
14:39 75.6 °F 43.7 °F 30.05 in ENE 27.1 mph 28 mph 32 % 0 in
14:44 75.6 °F 43.7 °F 30.05 in ENE 11 mph 15 mph 32 % 0 in
14:49 75.6 °F 44.4 °F 30.05 in ENE 14.1 mph 16 mph 33 % 0 in
14:54 75.7 °F 44.6 °F 30.05 in North 4.9 mph 15 mph 33 % 0 in
14:59 76.3 °F 44.2 °F 30.05 in ENE 10.1 mph 18 mph 32 % 0 in
15:04 76.3 °F 44.2 °F 30.05 in NNE 6.9 mph 9 mph 32 % 0 in
15:09 75.9 °F 43.9 °F 30.05 in ENE 10.1 mph 19 mph 32 % 0 in
15:14 75.9 °F 43.9 °F 30.05 in ENE 14.1 mph 17 mph 32 % 0 in
15:19 75.7 °F 43.7 °F 30.04 in ENE 6.9 mph 17 mph 32 % 0 in
15:24 75.6 °F 43.7 °F 30.04 in ENE 19.9 mph 20 mph 32 % 0 in
15:29 75.6 °F 44.4 °F 30.05 in ENE 8.9 mph 14 mph 33 % 0 in
15:34 75.9 °F 43.9 °F 30.05 in NE 6.9 mph 9 mph 32 % 0 in
15:39 75.9 °F 43.9 °F 30.05 in NE 8.9 mph 15 mph 32 % 0 in
15:44 76.3 °F 44.2 °F 30.04 in ENE 12.1 mph 16 mph 32 % 0 in
15:49 76.1 °F 44.1 °F 30.04 in NE 8.1 mph 16 mph 32 % 0 in
15:54 76.8 °F 43.9 °F 30.04 in NE 11 mph 13 mph 31 % 0 in
15:59 76.5 °F 43.5 °F 30.04 in ENE 8.9 mph 13 mph 31 % 0 in
16:04 76.3 °F 42.6 °F 30.04 in NE 6.9 mph 15 mph 30 % 0 in
16:09 76.6 °F 42.8 °F 30.04 in NE 11 mph 14 mph 30 % 0 in
16:14 77 °F 44.1 °F 30.04 in NE 4 mph 9 mph 31 % 0 in
16:19 77.4 °F 43.5 °F 30.03 in ENE 13 mph 20 mph 30 % 0 in
16:24 77 °F 43.2 °F 30.03 in NNE 17 mph 17 mph 30 % 0 in
16:29 76.3 °F 42.6 °F 30.04 in ENE 10.1 mph 17 mph 30 % 0 in
16:34 75.9 °F 42.3 °F 30.04 in NE 6.9 mph 19 mph 30 % 0 in
16:39 75.9 °F 43.2 °F 30.03 in ENE 6 mph 16 mph 31 % 0 in
16:44 75.9 °F 43.2 °F 30.04 in NE 12.1 mph 15 mph 31 % 0 in
16:49 75.9 °F 42.3 °F 30.04 in NE 6 mph 6 mph 30 % 0 in
16:54 75.9 °F 43.2 °F 30.04 in ENE 4.9 mph 16 mph 31 % 0 in
16:59 75.9 °F 43.2 °F 30.04 in NE 4.9 mph 7 mph 31 % 0 in
17:04 76.5 °F 43.5 °F 30.04 in ENE 8.9 mph 11 mph 31 % 0 in
17:09 76.5 °F 42.8 °F 30.04 in NE 13 mph 16 mph 30 % 0 in
17:14 75.9 °F 43.2 °F 30.04 in ENE 4.9 mph 12 mph 31 % 0 in
17:19 76.1 °F 43.3 °F 30.04 in NE 11 mph 14 mph 31 % 0 in
17:24 76.5 °F 43.5 °F 30.04 in NE 6.9 mph 14 mph 31 % 0 in
17:29 76.5 °F 44.4 °F 30.04 in NNE 8.9 mph 11 mph 32 % 0 in
17:34 75.9 °F 43.9 °F 30.04 in ENE 2.9 mph 10 mph 32 % 0 in
17:39 75.9 °F 43.9 °F 30.04 in NE 10.1 mph 14 mph 32 % 0 in
17:44 75.7 °F 43.7 °F 30.04 in ENE 16.1 mph 21 mph 32 % 0 in
17:49 75.6 °F 43.7 °F 30.04 in ENE 16.1 mph 16 mph 32 % 0 in
17:54 75.6 °F 43.7 °F 30.03 in NE 12.1 mph 15 mph 32 % 0 in
17:59 75.6 °F 43.7 °F 30.03 in NE 12.1 mph 12 mph 32 % 0 in
18:04 75.6 °F 43.7 °F 30.03 in ENE 8.9 mph 16 mph 32 % 0 in
18:09 75.6 °F 42.8 °F 30.03 in NE 8.1 mph 13 mph 31 % 0 in
18:14 75.6 °F 42.8 °F 30.03 in ENE 8.9 mph 13 mph 31 % 0 in
18:19 75.4 °F 42.6 °F 30.03 in NE 4 mph 8 mph 31 % 0 in
18:24 75.2 °F 42.4 °F 30.03 in East 8.9 mph 12 mph 31 % 0 in
18:29 75 °F 43.2 °F 30.04 in ENE 8.1 mph 10 mph 32 % 0 in
18:34 75 °F 43.2 °F 30.04 in NE 10.1 mph 15 mph 32 % 0 in
18:39 75 °F 43.2 °F 30.04 in NE 4 mph 12 mph 32 % 0 in
18:44 75 °F 43.2 °F 30.04 in ENE 12.1 mph 14 mph 32 % 0 in
18:49 74.8 °F 42.3 °F 30.04 in ENE 8.9 mph 12 mph 31 % 0 in
18:54 74.8 °F 43 °F 30.04 in NE 8.9 mph 15 mph 32 % 0 in
18:59 74.8 °F 42.3 °F 30.04 in NE 8.1 mph 13 mph 31 % 0 in
19:04 74.8 °F 43 °F 30.04 in NE 8.1 mph 10 mph 32 % 0 in
19:09 74.7 °F 42.8 °F 30.04 in NNE 8.1 mph 11 mph 32 % 0 in
19:14 74.5 °F 42.6 °F 30.04 in ENE 4 mph 8 mph 32 % 0 in
19:19 74.5 °F 42.6 °F 30.04 in ENE 4.9 mph 8 mph 32 % 0 in
19:24 74.1 °F 42.4 °F 30.04 in ENE 6 mph 8 mph 32 % 0 in
19:29 73.9 °F 43 °F 30.04 in ENE 8.1 mph 11 mph 33 % 0 in
19:34 73.6 °F 42.6 °F 30.04 in East 6.9 mph 13 mph 33 % 0 in
19:39 73.6 °F 42.6 °F 30.04 in ENE 11 mph 11 mph 33 % 0 in
19:44 73.4 °F 42.6 °F 30.05 in NE 6 mph 10 mph 33 % 0 in
19:49 73.2 °F 42.4 °F 30.05 in ENE 8.9 mph 10 mph 33 % 0 in
19:54 73 °F 43 °F 30.05 in NE 6.9 mph 8 mph 34 % 0 in
19:59 73 °F 43 °F 30.05 in NE 8.1 mph 9 mph 34 % 0 in
20:04 72.9 °F 42.8 °F 30.05 in ENE 4.9 mph 6 mph 34 % 0 in
20:09 72.7 °F 42.6 °F 30.05 in ENE 2.9 mph 4 mph 34 % 0 in
20:14 72.3 °F 42.4 °F 30.05 in ENE 0.9 mph 2 mph 34 % 0 in
20:19 72 °F 42.8 °F 30.05 in Calm   1 mph 35 % 0 in
20:24 71.6 °F 42.4 °F 30.05 in ENE 0.9 mph 2 mph 35 % 0 in
20:29 71.2 °F 43 °F 30.06 in ENE 2 mph 2 mph 36 % 0 in
20:34 71.1 °F 42.8 °F 30.06 in ENE 2 mph 4 mph 36 % 0 in
20:39 70.7 °F 42.4 °F 30.06 in ENE 0.9 mph 3 mph 36 % 0 in
20:44 70.5 °F 42.3 °F 30.06 in ENE 0.9 mph 2 mph 36 % 0 in
20:49 70.3 °F 42.8 °F 30.06 in ENE 0.9 mph 2 mph 37 % 0 in
20:54 70.2 °F 42.6 °F 30.07 in ENE 0.9 mph 1 mph 37 % 0 in
20:59 70 °F 42.4 °F 30.07 in ENE 2 mph 2 mph 37 % 0 in
21:04 69.4 °F 42.8 °F 30.07 in ENE 0.9 mph 1 mph 38 % 0 in
21:09 68.9 °F 43 °F 30.07 in SSE 2.9 mph 5 mph 39 % 0 in
21:14 68.2 °F 43 °F 30.07 in SSW 4 mph 7 mph 40 % 0 in
21:19 67.8 °F 43.3 °F 30.07 in South 4.9 mph 5 mph 41 % 0 in
21:24 67.5 °F 43.5 °F 30.08 in SSW 4.9 mph 8 mph 42 % 0 in
21:29 66.6 °F 43.3 °F 30.08 in SW 8.1 mph 9 mph 43 % 0 in
21:34 66.2 °F 43.7 °F 30.08 in SSE 6 mph 8 mph 44 % 0 in
21:39 65.7 °F 43.2 °F 30.08 in SE 6.9 mph 10 mph 44 % 0 in
21:44 65.3 °F 43.3 °F 30.08 in SE 6.9 mph 10 mph 45 % 0 in
21:49 64.9 °F 43.2 °F 30.08 in SSW 8.1 mph 10 mph 45 % 0 in
21:54 64.9 °F 43.2 °F 30.09 in SSW 8.9 mph 9 mph 45 % 0 in
21:59 64.2 °F 43 °F 30.09 in South 8.1 mph 10 mph 46 % 0 in
22:04 63.9 °F 43.2 °F 30.08 in SW 8.1 mph 11 mph 47 % 0 in
22:09 63.3 °F 43.3 °F 30.08 in SSW 6.9 mph 10 mph 48 % 0 in
22:14 63.1 °F 43.2 °F 30.09 in SW 6 mph 11 mph 48 % 0 in
22:19 63 °F 43 °F 30.09 in SSE 6.9 mph 11 mph 48 % 0 in
22:24 63 °F 43.5 °F 30.09 in SW 6.9 mph 11 mph 49 % 0 in
22:29 62.2 °F 43.3 °F 30.09 in SSW 10.1 mph 13 mph 50 % 0 in
22:34 61.5 °F 43.2 °F 30.09 in SSE 6 mph 10 mph 51 % 0 in
22:39 61.3 °F 43 °F 30.09 in SSW 6.9 mph 11 mph 51 % 0 in
22:44 61 °F 43.2 °F 30.09 in SW 8.9 mph 10 mph 52 % 0 in
22:49 60.6 °F 43 °F 30.09 in South 6.9 mph 8 mph 52 % 0 in
22:54 60.3 °F 43 °F 30.09 in WSW 6.9 mph 10 mph 53 % 0 in
22:59 60.3 °F 43 °F 30.09 in WSW 8.9 mph 10 mph 53 % 0 in
23:04 60.3 °F 43 °F 30.09 in SSW 6.9 mph 11 mph 53 % 0 in
23:09 59.9 °F 42.8 °F 30.09 in SSE 6 mph 8 mph 53 % 0 in
23:14 59.9 °F 42.8 °F 30.09 in SW 6 mph 9 mph 53 % 0 in
23:19 60.1 °F 43 °F 30.09 in SSW 4 mph 8 mph 53 % 0 in
23:24 59.5 °F 42.8 °F 30.09 in South 4.9 mph 9 mph 54 % 0 in
23:29 59.2 °F 42.6 °F 30.09 in SSE 6.9 mph 10 mph 54 % 0 in
23:34 59 °F 42.8 °F 30.09 in WSW 6.9 mph 9 mph 55 % 0 in
23:39 58.8 °F 42.6 °F 30.10 in SW 6.9 mph 11 mph 55 % 0 in
23:44 58.8 °F 42.6 °F 30.10 in SSW 4 mph 8 mph 55 % 0 in
23:49 58.5 °F 42.8 °F 30.10 in SW 6.9 mph 9 mph 56 % 0 in
23:54 58.1 °F 43 °F 30.10 in South 4.9 mph 10 mph 57 % 0 in
23:59 57.9 °F 43.2 °F 30.10 in SW 6 mph 9 mph 58 % 0 in
Evergreen Colorado, USA
Compliments of Weather Underground - 3.5 mb